Weather History for Phoenix, AZ

Change the Weather History Date:

Tuesday, June 10, 2014

  Actual Average Record
Temperature  
Mean Temperature 96 °F 90 °F  
Max Temperature 109 °F 103 °F 111 °F (1978)
Min Temperature 83 °F 76 °F 55 °F (1965)
Degree Days  
Heating Degree Days 0 0  
Month to date heating degree days 0 0  
Since 1 June heating degree days 0 0  
Since 1 July heating degree days 546 935  
Cooling Degree Days 31 24  
Month to date cooling degree days 280 231  
Year to date cooling degree days 1355 1117  
Since 1 June cooling degree days 280 231  
Growing Degree Days 45 (Base 50)    
Moisture  
Dew Point 43 °F    
Average Humidity 19    
Maximum Humidity 29    
Minimum Humidity 8    
Precipitation  
Precipitation 0.00 in 0.00 in 0.26 in (1957)
Month to date precipitation 0.00 0.00  
Year to date precipitation 0.99 3.21  
Snow  
Snow 0.00 in - - ()
Month to date snowfall 0.0  
Year to date snowfall 0.0  
Since 1 July snowfall 0.0  
Snow Depth 0.00 in    
Sea Level Pressure  
Sea Level Pressure 29.65 in    
Wind  
Wind Speed 9 mph (West)    
Max Wind Speed 24 mph    
Max Gust Speed 29 mph    
Visibility 10 miles    
Events      
T = Trace of Precipitation, MM = Missing Value Source: NWS Daily Summary

Daily Weather History Graph

Daily Weather History Graph

Search for Another Location

Airport:

Trip Planner

Search our weather history database for the weather conditions in past years. The results will help you decide how hot, cold, wet, or windy it might be!

Date:

Astronomy

Jun. 10, 2014 Rise Set
Actual Time 5:17 AM MST 7:37 PM MST
Civil Twilight 4:48 AM MST 8:06 PM MST
Nautical Twilight 4:13 AM MST 8:41 PM MST
Astronomical Twilight 3:35 AM MST 9:20 PM MST
Moon 5:13 PM MST (6/10) 3:18 AM MST (6/10)
Length of Visible Light 15h 17m
Length of Day
14h 19m
Waxing Gibbous, 93% of the Moon is Illuminated
Jun 10
Waxing Gibbous
Jun 12
Full
Jun 19
Last Quarter
Jun 27
New
Jul 5
First Quarter

Hourly Weather History & Observations

Time (MST) Temp. Dew Point Humidity Pressure Visibility Wind Dir Wind Speed Gust Speed Precip Events Conditions
12:51 AM 93.9 °F 37.9 °F 14% 29.61 in 10.0 mi WNW 11.5 mph - N/A   Clear
1:51 AM 90.0 °F 41.0 °F 18% 29.61 in 10.0 mi WSW 5.8 mph - N/A   Clear
2:51 AM 88.0 °F 41.0 °F 19% 29.62 in 10.0 mi Calm Calm - N/A   Clear
3:51 AM 88.0 °F 46.9 °F 24% 29.63 in 10.0 mi North 4.6 mph - N/A   Clear
4:51 AM 84.9 °F 48.0 °F 28% 29.65 in 10.0 mi East 5.8 mph - N/A   Partly Cloudy
5:51 AM 82.4 °F 46.4 °F 28% 29.73 in 10.0 mi ESE 6.9 mph - N/A   Partly Cloudy
6:51 AM 84.0 °F 41.0 °F 22% 29.68 in 10.0 mi East 8.1 mph - N/A   Partly Cloudy
7:51 AM 88.0 °F 45.0 °F 22% 29.70 in 10.0 mi ESE 5.8 mph - N/A   Partly Cloudy
8:51 AM 91.9 °F 46.9 °F 21% 29.71 in 10.0 mi Variable 3.5 mph - N/A   Partly Cloudy
9:51 AM 96.8 °F 46.4 °F 18% 29.77 in 10.0 mi Variable 5.8 mph - N/A   Partly Cloudy
10:51 AM 98.6 °F 46.4 °F 17% 29.77 in 10.0 mi ESE 4.6 mph - N/A   Mostly Cloudy
11:51 AM 100.9 °F 46.0 °F 15% 29.68 in 10.0 mi WSW 5.8 mph - N/A   Mostly Cloudy
12:51 PM 102.9 °F 45.0 °F 14% 29.67 in 10.0 mi North - - N/A   Mostly Cloudy
1:51 PM 107.1 °F 42.1 °F 11% 29.64 in 10.0 mi SSE 10.4 mph 17.3 mph N/A   Mostly Cloudy
2:51 PM 108.0 °F 41.0 °F 10% 29.61 in 10.0 mi West 10.4 mph - N/A   Mostly Cloudy
3:51 PM 107.1 °F 42.1 °F 11% 29.59 in 10.0 mi WNW 9.2 mph 19.6 mph N/A   Mostly Cloudy
4:51 PM 107.1 °F 42.1 °F 11% 29.57 in 10.0 mi WNW 13.8 mph 18.4 mph N/A   Mostly Cloudy
5:51 PM 107.1 °F 39.9 °F 10% 29.56 in 10.0 mi WSW 9.2 mph - N/A   Scattered Clouds
6:51 PM 106.0 °F 32.0 °F 8% 29.58 in 10.0 mi West 20.7 mph - N/A   Scattered Clouds
7:51 PM 100.4 °F 35.6 °F 11% 29.66 in 10.0 mi West 21.9 mph - N/A   Scattered Clouds
8:51 PM 98.1 °F 39.0 °F 13% 29.61 in 10.0 mi West 18.4 mph - N/A   Partly Cloudy
9:51 PM 96.1 °F 41.0 °F 15% 29.63 in 10.0 mi West 16.1 mph - N/A   Partly Cloudy
10:51 PM 93.9 °F 41.0 °F 16% 29.64 in 10.0 mi WNW 12.7 mph - N/A   Mostly Cloudy
11:51 PM 91.9 °F 42.1 °F 18% 29.65 in 10.0 mi Calm Calm - N/A   Mostly Cloudy